Weather observations for the past three days for
Fairchild Air Force Base
Imperial (Metric)
Date Time (pdt) Wind (mph) Vis. (mi.) Weather Sky Cond. Temperature (ºF) Relative Humidity Wind Chill (°F) Heat Index (°F) Pressure Precipitation (in)
Air Dwpt 6 hour altimeter (in) sea level (mb) 1 hr 3 hr 6 hr
Max. Min.
06 09:55 S 6 10.00 Fair CLR 64.9 45.3 49% 29.94 1013.0
06 08:55 SE 10 10.00 Fair CLR 61.7 41.7 48% 29.93 1012.3
06 07:55 SE 7 10.00 Fair CLR 58.1 36.9 45% 29.94 1012.8
06 06:55 SE 3 10.00 Fair CLR 53.8 35.6 50% 29.94 1012.8
06 05:55 Calm 10.00 Fair CLR 50.4 31.5 48% 29.93 1012.7
06 04:55 E 3 10.00 Fair CLR 49.5 32 58.8 48.2 51% 29.91 1012.0
06 03:55 E 6 10.00 Fair CLR 48.6 33.6 56% 47 29.91 1012.0
06 02:55 Calm 10.00 Fair CLR 52.2 33.6 49% 29.9 1011.6
06 01:55 SE 5 10.00 Fair CLR 52.3 35.2 52% 29.91 1012.0
06 00:55 SE 5 10.00 Fair CLR 57.2 34.3 42% 29.9 1011.5
05 23:55 S 3 10.00 Fair CLR 57.7 34.2 41% 29.9 1011.5
05 22:55 S 3 10.00 Fair CLR 59 37 73.6 58.1 44% 29.89 1011.1
05 21:55 Calm 10.00 Fair CLR 58.5 37.8 46% 29.88 1010.9
05 20:55 S 5 10.00 Fair CLR 64.8 37.2 36% 29.87 1010.4
05 19:55 SE 3 10.00 Fair CLR 67.3 39.4 36% 29.86 1010.1
05 18:55 Calm 10.00 Fair CLR 71.1 40.5 33% 29.86 1010.1
05 17:55 SE 3 10.00 Fair CLR 71.4 34.7 26% 29.86 1010.2
05 16:55 NW 8 10.00 Fair CLR 72.5 35.6 73.2 66.2 26% 29.88 1010.8
05 14:55 NW 7 10.00 Fair CLR 70.9 35.2 27% 29.91 1011.8
05 13:55 N 10 10.00 Fair CLR 70.3 38.3 31% 29.92 1012.1
05 12:55 E 6 10.00 Fair CLR 68.9 37 31% 29.93 1012.3
05 11:55 NE 9 10.00 Fair CLR 66.9 35.2 31% 29.93 1012.5
05 10:55 E 13 10.00 Fair CLR 66.4 35.6 66.4 49.1 32% 29.93 1012.5
05 09:55 E 13 10.00 Fair CLR 63.7 36.1 36% 29.94 1012.7
05 08:55 E 13 10.00 Fair CLR 61 36.5 40% 29.94 1013.0
05 07:55 E 13 10.00 Fair CLR 58.6 36.9 44% 29.93 1012.3
05 06:55 E 8 10.00 Fair CLR 53.6 37.8 55% 29.91 1011.8
05 05:55 E 8 10.00 Fair CLR 49.3 36.3 61% 46 29.89 1011.1
05 04:55 E 7 10.00 Fair CLR 52.5 36.9 61.7 50 55% 29.88 1010.6
05 03:55 E 5 10.00 Mostly Cloudy BKN095 53.2 37.9 56% 29.87 1010.1
05 02:55 NE 5 10.00 Fair CLR 54.9 36.5 50% 29.86 1009.8
05 01:55 E 9 10.00 Fair CLR 55.4 37 50% 29.84 1009.2
05 00:55 E 5 10.00 Fair CLR 57.6 36.9 46% 29.83 1008.9
04 23:55 E 10 10.00 Fair CLR 59.7 37.2 43% 29.81 1008.0
04 22:55 E 10 10.00 Fair CLR 59.7 37.2 76.6 59.7 43% 29.8 1007.9
04 21:55 E 7 10.00 Fair CLR 62.6 36.7 38% 29.8 1007.9
04 20:55 E 9 10.00 Fair CLR 61.7 37.8 41% 29.79 1007.7
04 19:55 NE 9 10.00 Fair CLR 69.8 37 30% 29.77 1006.8
04 18:55 NE 7 10.00 Fair CLR 73.2 39 29% 29.76 1006.5
04 17:55 NE 13 10.00 Fair CLR 75.6 37.2 25% 77 29.77 1006.8
04 16:55 NE 9 10.00 Fair CLR 76.3 37.9 77.7 69.4 25% 77 29.77 1006.8
04 15:55 N 7 10.00 Fair CLR 77.2 39.6 26% 77 29.78 1007.0
04 14:55 NE 10 10.00 Fair CLR 76.3 38.8 26% 77 29.79 1007.5
04 13:55 NE 3 10.00 Fair CLR 74.5 40.1 29% 29.8 1008.0
04 12:55 NE 7 10.00 Fair CLR 73.2 37.2 27% 29.8 1007.9
04 11:55 NE 12 10.00 Fair CLR 72 41.4 33% 29.81 1008.2
04 10:55 E 9 10.00 Fair CLR 69.3 42.6 69.3 51.1 38% 29.81 1008.2
04 09:55 NE 7 10.00 Fair CLR 66.4 42.6 42% 29.81 1008.2
04 08:55 NE 7 10.00 Fair CLR 63 41.9 46% 29.81 1008.2
04 06:55 NE 5 10.00 Fair CLR 54.3 40.6 60% 29.8 1007.9
04 05:55 Calm 10.00 Fair CLR 51.8 38.3 60% 29.79 1007.5
04 04:55 Calm 10.00 Fair CLR 52.7 38.8 60.4 49.6 59% 29.78 1007.0
04 03:55 Calm 10.00 Fair CLR 55.4 38.5 53% 29.78 1007.0
04 02:55 Calm 10.00 Fair CLR 52.5 36.9 55% 29.78 1007.2
04 01:55 NW 8 10.00 Fair CLR 51.6 39.4 63% 29.78 1007.3
04 00:55 NW 9 10.00 Fair CLR 57.2 38.3 49% 29.78 1007.0
03 23:55 NW 8 10.00 Fair CLR 56.5 39 52% 29.78 1007.2
03 22:55 W 9 10.00 Fair CLR 60.6 37.9 79 58.8 43% 29.79 1007.4
03 21:55 W 7 10.00 Fair CLR 61.2 39.6 45% 29.8 1007.9
03 20:55 W 8 10.00 Fair CLR 64.6 39.7 40% 29.8 1007.9
03 19:55 W 6 10.00 Fair CLR 69.4 41.4 36% 29.8 1007.9
03 18:55 W 7 10.00 Fair CLR 75.4 39 27% 77 29.8 1007.9
03 17:55 W 6 10.00 Fair CLR 77.9 38.1 24% 78 29.81 1008.2
03 16:55 W 5 10.00 Fair CLR 78.3 35.1 78.6 70.7 21% 78 29.84 1009.1
03 15:55 NE 5 10.00 Fair CLR 78.1 32.4 19% 77 29.85 1009.2
03 14:55 N 8 10.00 Fair CLR 76.8 35.1 22% 77 29.88 1010.4
03 13:55 Calm 10.00 Fair CLR 75 31.3 20% 76 29.91 1011.8
03 12:55 W 3 10.00 Fair CLR 73.9 31.5 21% 29.93 1012.3
03 11:55 N 9 10.00 Fair CLR 72.9 36.9 27% 29.94 1012.7
03 10:55 NW 5 10.00 Fair CLR 70.5 39.2 70.5 49.3 32% 29.95 1013.2
Date Time (pdt) Wind (mph) Vis. (mi.) Weather Sky Cond. Air Dwpt Max. Min. Relative Humidity Wind Chill (°F) Heat Index (°F) altimeter (in) sea level (mb) 1 hr 3 hr 6 hr
6 hour
Temperature (ºF) Pressure Precipitation (in)